Hauptseite
METAR-TAF:

METAR-TAF

Flughäfen :

Sarzana, Italien

Militärflugplatz Sarzana-Luni

Breite: 44-05N, Länge: 009-59E, Höhe: 9 m

Beobachtung

Neuester Wetterbericht von vor 1 Stunde und 11 Minuten, um 08:55 UTC
Wind 6 kt aus Südost
Temperatur 20°C
Luftfeuchtigkeit 56%
Luftdruck 1026 hPa
Sichtweite 10 km oder mehr
keine Wolken unter 1500 m und keine Kumulonimbus oder Gewitterwolken

METAR: LIQW 190855Z 13006KT CAVOK 20/11 Q1026 RMK SKC VIS MIN 9999 WIND THR18 15007KT BLU

Zeit: 12:06 (10:06 UTC)


TAF: fehlend

Wetterbeobachtungen und Prognosen von mehr als 4000 Flughäfen (METAR und TAF Bericht).

Die verfügbaren Stationen werden durch gelbe und rote Markierungen auf der Karte dargestellt.

Führen Sie die Maus auf sie, um den Namen der Station zu sehen.

Darauf klicken, um die Beobachtung von Wetterbeobachtungen und Prognosen zu sehen.

Um die Karte zu ändern : klicken Sie auf den grünen Tasten mit einem schwarzen Kreuz Zum Vergrößern, auf den grünen Button mit einem Gedankenstrich zu verkleinern, oder auf die grünen Pfeile für benachbarte Karten.


METAR-TAF: